Regional Weather Roundup
Issued by NWS New Orleans/Baton Rouge, LA

Home | Current Version | Previous Version | Text Only | Print | Product List | Glossary On
Versions: 1 2 3 4 5 6 7 8 9 10 11 12 13 14 15 16 17 18 19 20 21 22 23 24 25 26 27 28 29 30 31 32 33 34 35 36 37 38 39 40 41 42 43 44 45 46 47 48 49 50
000
ASUS44 KLIX 281511
RWRLIX
NEW ORLEANS REGIONAL WEATHER ROUNDUP
NATIONAL WEATHER SERVICE NEW ORLEANS LA
1000 AM CDT FRI AUG 28 2015

NOTE: "FAIR" INDICATES FEW OR NO CLOUDS BELOW 12,000 FEET WITH NO
      SIGNIFICANT WEATHER AND/OR OBSTRUCTIONS TO VISIBILITY.
      SKY/WX - SKY CONDITION AND SIGNIFICANT WEATHER.
      TMP - AIR TEMPERATURE.     DP    - DEWPOINT TEMPERATURE.
      RH  - RELATIVE HUMIDITY.   PRES  - PRESSURE.
      HI  - HEAT INDEX.          WCI   - WIND CHILL INDEX.

*  THESE STATIONS ARE NOT NWS OR FAA STATIONS AND ARE NOT UNDER
   NWS QUALITY CONTROL.

LAZ038-040-048-061>063-065>067-069-281600-
SOUTHEAST LOUISIANA

CITY           SKY/WX    TMP DP  RH WIND       PRES   REMARKS
N.O. AUDUBON     N/A     87  70  56 MISG        N/A
N.O. INTL ARPT MOSUNNY   83  66  56 NE8       30.02R
N.O. LAKEFRONT MOSUNNY   79  67  66 NE6       30.03R
N.O. DOWNTOWN*   N/A     82  64  54 NE6       30.03R
RESERVE*         N/A     83  66  57 NE5       30.03R
SLIDELL        MOSUNNY   79  68  69 N6        30.02R
BATON ROUGE    SUNNY     81  63  54 VRB5      30.04R
BOOTHVILLE     SUNNY     85  74  69 VRB5      30.00R
BELLE CHASSE   MOSUNNY   82  67  60 NE6       30.02R
BOGALUSA*      NOT AVBL
GALLIANO*      SUNNY     84  68  59 MISG      30.02R
NEW ROADS*       N/A     79  63  58 E5        30.05R
GONZALES*        N/A     80  64  58 CALM      30.03R
HAMMOND*       SUNNY     82  63  51 NE3       30.05R
HOUMA*         SUNNY     81  66  61 NE8       30.02R
PORT FOURCHON* SUNNY     82  68  61 N10       30.02S

$$

MSZ070-080>082-281600-
SOUTHERN MISSISSIPPI

CITY           SKY/WX    TMP DP  RH WIND       PRES   REMARKS
MCCOMB         SUNNY     80  64  58 NE6       30.06R
GULFPORT       SUNNY     82  66  58 VRB6      30.01R
BILOXI         SUNNY     81  67  63 N2        30.01R
PASCAGOULA     SUNNY     82  68  62 VRB5      30.02R
STENNIS ARPT*  SUNNY     81  63  54 CALM      30.02R

$$

COASTAL OBSERVATIONS
LAKE AND NEARSHORE STATIONS

STATION/POSITION TIME  TEMP    WIND        PRES    WAVE
                       AIR SEA DIR/SP/G            HT/PER
                 (UTC) (F)     (DEG/KT/KT) (MB)    (FT/S)
PASCAGOULA       1400   79      60/  5/  6 1015.4
WAVELAND YACHT   1400   76 80   50/  5/  8 1016.2
GRAND ISLE       1400   80 83   20/  7/ 10 1016.1
SOUTHWEST PASS   1400   83 85  290/  3/  5 1016.0
NEW CANAL        1400   77 83   60/ 11/ 12 1015.5
SHELL BEACH      1400   77 82   30/  9/ 11 1015.4

OFFSHORE STATIONS

STATION/POSITION TIME  TEMP    WIND        PRES    WAVE
                       AIR SEA DIR/SP/G            HT/PER
                 (UTC) (F)     (DEG/KT/KT) (MB)    (FT/S)
64 S DAUPHIN ISL 1450   80 85  190/ 10/ 12 1016.5    1

$$




USA.gov is the U.S. government's official web portal to all federal, state and local government web resources and services.